Theta_e
344 343 340 342 343 340 340 343 345 345 345 347 347 347 346 346 346 345 344 345 345 343 342 342 342 344 343 343 341 342 339 337 332 335 340 342 343 346 343 338 336 333 332
343 344 343 343 343 340 339 344 345 343 342 344 346 346 345 345 344 344 345 347 344 343 345 344 344 348 344 343 341 342 339 339 336 332 334 335 340 343 340 336 340 337 334
343 344 344 343 343 341 341 343 344 345 344 343 342 343 346 346 346 347 346 345 344 344 345 345 345 344 343 344 343 340 340 343 338 334 334 338 340 341 343 334 329 328 333
343 343 343 343 343 344 343 343 344 345 345 345 345 345 345 346 347 347 347 346 345 346 345 345 346 345 342 343 341 340 341 339 338 336 335 335 336 338 339 331 325 327 328
343 342 343 344 343 344 343 344 345 345 345 346 346 346 345 347 349 348 348 346 345 345 345 346 347 347 343 341 343 340 340 338 337 336 333 333 334 336 333 336 331 328 322
344 342 343 344 343 343 344 344 344 344 346 345 346 347 346 350 340 339 344 343 344 344 343 344 346 345 343 339 339 338 339 337 334 334 333 332 332 334 337 337 334 337 333
344 343 344 343 343 344 345 345 345 344 345 345 345 345 345 346 331 332 337 341 341 344 343 343 344 340 338 342 336 336 335 335 336 336 332 334 332 330 328 330 333 333 330
334 335 337 341 344 345 343 345 345 344 344 346 345 344 343 330 326 326 331 334 339 339 340 340 335 330 324 329 336 338 337 329 327 331 328 322 319 318 322 327 330 324 320
335 337 338 339 340 340 341 342 343 340 339 339 340 336 333 330 324 326 330 338 334 329 328 327 328 325 322 324 333 334 326 320 320 320 319 318 318 319 320 324 323 329 326
336 334 336 335 341 341 341 339 340 341 337 334 331 331 327 326 322 324 327 336 328 323 320 319 319 319 315 319 330 332 328 319 318 317 315 316 317 316 318 312 317 321 315
338 336 333 335 336 338 338 339 337 334 330 327 324 325 324 323 320 318 323 329 326 321 318 317 316 314 311 312 318 325 327 327 324 317 314 316 317 316 315 314 312 312 310
335 331 333 333 336 339 334 333 331 328 326 324 323 322 321 320 315 314 315 320 322 320 316 316 315 310 309 311 315 314 315 320 319 317 317 316 316 315 316 315 313 312 312
333 331 331 331 329 331 329 327 326 326 324 322 321 319 319 319 317 312 313 315 316 318 319 315 313 309 310 312 312 314 315 315 316 318 317 316 314 313 310 308 310 308 307
330 328 327 327 325 325 325 325 324 324 322 321 320 319 319 319 318 318 317 317 316 316 317 315 315 314 313 313 312 311 311 312 312 309 306 306 309 308 306 305 303 305 304
327 324 321 319 316 310 307 313 315 308 315 322 321 321 315 312 311 305 312 317 317 313 315 315 314 313 311 310 310 310 308 307 305 304 303 302 302 302 302 302 301 301 301
323 321 319 317 315 313 310 305 302 301 302 305 306 310 304 303 298 299 298 301 303 305 315 311 309 308 308 307 307 307 306 307 305 303 304 304 298 299 298 300 300 300 301
321 320 318 317 316 313 312 310 305 302 300 298 298 298 300 298 297 297 299 299 301 305 310 311 308 307 305 305 305 305 303 302 301 300 299 299 299 300 300 299 298 300 299
322 315 320 318 317 316 314 311 307 303 301 300 298 298 296 295 295 296 300 303 307 306 308 308 307 306 306 305 304 303 302 300 299 299 297 297 297 297 296 294 294 297 298
324 324 323 323 321 319 316 312 309 305 303 304 304 301 297 295 295 295 297 308 310 306 305 307 308 307 306 304 303 300 300 299 298 296 296 296 296 295 295 294 294 297 296
324 321 320 319 316 314 312 311 309 306 305 306 307 308 304 306 306 303 297 297 299 302 302 305 308 307 307 305 303 300 298 298 297 296 295 294 293 293 293 292 293 293 293
318 317 317 312 314 314 312 312 311 309 307 307 306 307 303 307 303 300 300 299 300 303 305 308 307 308 307 304 304 302 301 299 297 295 294 293 293 293 293 293 292 293 292
310 310 309 309 308 309 311 308 310 311 310 308 306 304 299 302 302 303 303 304 303 304 307 308 308 307 306 305 304 303 301 300 299 297 296 295 294 294 293 293 293 293 293
308 309 307 306 306 306 306 304 304 304 305 305 304 303 301 301 301 301 303 304 303 306 306 307 307 306 306 305 305 304 303 302 299 299 296 296 295 294 293 294 293 293 293
311 309 308 307 308 304 303 303 302 301 303 303 304 303 302 302 303 304 304 304 306 305 306 308 307 307 307 306 305 304 301 299 298 298 297 296 295 293 293 294 293 294 292
310 309 310 306 303 303 303 302 302 302 303 304 303 303 303 303 304 305 305 305 304 306 305 307 307 308 307 304 303 300 294 293 296 294 297 297 296 295 295 295 295 294 294
306 305 304 302 301 301 302 301 301 301 301 302 302 302 303 303 302 303 304 305 304 303 304 305 306 306 304 301 300 295 287 290 294 292 296 296 295 294 294 295 295 294 294
Wind_Speed
12 10 8 7 8 6 6 6 6 6 6 6 7 7 7 6 6 6 5 5 4 3 3 3 4 3 3 2 2 2 1 2 2 3 2 1 1 2 3 4 3 2 3
12 11 10 7 7 7 7 6 6 7 5 6 6 6 6 6 5 6 6 5 6 4 4 3 6 2 5 3 3 4 3 3 3 3 2 2 2 2 4 3 1 2 2
11 11 11 10 8 7 7 7 6 6 7 6 5 5 6 6 6 5 6 6 5 5 6 5 6 4 4 3 3 3 2 2 2 2 3 1 0 1 3 3 2 1 1
12 12 12 12 11 10 8 8 7 6 6 6 6 6 7 6 6 6 6 5 5 6 6 6 5 4 4 3 3 4 3 2 1 2 2 2 2 2 2 3 2 2 3
14 13 15 13 11 10 8 8 8 8 7 7 6 6 6 6 5 6 6 6 6 6 6 5 5 6 7 5 2 3 3 2 2 2 2 1 2 2 3 3 3 3 4
14 15 12 10 10 11 10 9 8 8 8 7 7 8 8 6 9 10 7 6 6 6 6 4 4 5 4 6 2 2 4 3 2 2 1 2 3 2 1 1 2 3 3
12 10 11 10 11 11 10 9 10 9 8 9 9 8 8 6 7 8 8 4 5 5 5 5 4 2 1 1 1 2 1 4 2 2 2 3 2 2 3 3 2 2 1
8 5 3 7 10 10 10 12 10 8 10 9 8 7 4 4 3 2 3 4 1 3 3 2 4 3 4 3 0 2 2 5 5 3 3 3 2 4 3 2 2 3 3
6 8 2 5 4 5 9 11 8 5 4 3 3 5 5 4 1 4 4 3 4 5 4 6 3 3 5 3 2 4 4 4 6 10 9 7 8 11 9 1 1 1 2
5 9 5 4 3 7 8 7 5 6 6 6 7 5 5 4 4 8 5 4 5 4 4 5 9 5 5 6 3 3 5 5 5 3 3 5 7 9 14 7 3 1 1
6 4 3 3 5 3 4 3 5 7 9 8 9 5 6 4 4 5 2 4 5 4 4 3 3 6 7 8 7 3 1 4 5 4 4 3 4 5 4 4 5 2 2
8 7 5 5 1 4 9 7 7 9 10 8 7 6 5 4 8 9 10 10 8 5 4 3 3 9 8 9 6 7 7 6 4 4 3 2 2 2 3 3 4 4 4
8 7 7 7 7 4 9 9 8 9 7 6 6 5 4 3 4 10 12 13 12 7 4 5 5 6 7 7 9 7 5 4 4 3 1 0 0 2 3 2 2 3 4
10 9 8 8 8 8 6 8 8 6 5 6 6 6 3 4 4 4 5 6 9 6 7 4 6 7 7 5 4 6 4 4 3 3 2 2 3 3 3 3 3 3 2
8 7 7 6 8 9 8 8 6 4 4 6 7 4 4 4 2 2 2 4 3 4 5 3 4 4 3 3 3 4 4 4 4 2 2 2 3 3 3 2 1 1 2
7 5 5 6 6 6 7 7 14 7 7 12 13 7 3 6 5 4 7 7 7 5 4 3 3 2 3 2 2 2 3 4 3 3 2 2 2 3 2 3 3 3 2
8 7 4 5 7 7 6 8 8 9 15 12 9 9 6 9 8 8 9 9 6 5 3 2 3 3 2 2 2 2 2 3 2 3 3 3 3 3 4 3 3 3 2
8 9 4 5 6 6 6 6 7 8 6 3 6 5 6 6 7 8 8 6 3 5 2 2 3 3 3 2 2 2 1 2 3 3 3 3 4 3 2 3 3 2 2
7 5 4 3 4 5 6 5 4 5 6 6 3 3 4 6 6 6 6 3 3 2 2 2 3 3 3 3 3 3 3 2 2 2 2 3 3 2 2 2 2 3 2
7 11 7 4 4 5 4 4 4 4 4 4 4 3 3 3 1 1 1 1 2 2 2 3 3 4 4 4 4 3 3 2 2 2 2 2 1 2 1 1 2 2 2
4 4 9 5 4 4 5 5 4 4 4 4 3 3 6 3 2 2 2 3 3 3 3 4 4 4 4 4 4 4 3 3 3 2 2 2 2 1 1 1 1 1 1
6 5 4 5 4 5 4 4 4 4 4 3 2 3 8 2 3 0 2 4 5 4 3 4 4 4 5 5 5 4 3 3 3 4 3 3 2 0 0 1 1 1 1
5 5 5 4 5 6 5 4 4 3 3 4 4 4 3 3 4 4 4 4 4 5 5 5 4 3 4 4 4 4 5 5 4 4 5 4 2 2 2 1 1 1 0
5 6 6 5 4 5 6 5 5 5 5 5 5 4 4 2 1 1 1 2 3 4 4 6 5 7 5 5 4 4 3 2 2 4 5 4 3 3 2 1 2 3 2
5 7 7 7 6 7 7 6 6 5 6 5 5 4 4 4 5 4 4 3 3 3 4 5 5 7 9 9 7 6 5 8 6 6 3 4 4 4 2 2 3 3 3
6 7 6 6 5 5 7 6 5 5 5 4 4 3 3 4 4 4 4 5 4 4 3 2 5 8 8 6 7 10 8 10 7 6 5 4 3 2 2 3 4 2 3
Wind_Direction
187 191 202 206 210 198 193 200 211 214 229 224 204 194 193 206 209 199 214 205 216 249 261 261 268 255 267 213 206 206 176 158 165 304 269 292 48 109 84 104 135 93 70
199 187 193 195 209 199 199 209 212 204 210 239 184 181 204 213 214 220 224 218 214 242 270 272 266 290 294 284 216 211 215 191 146 225 279 304 24 69 139 114 57 50 75
190 197 191 194 196 210 201 200 213 203 208 214 211 209 207 208 209 222 224 228 235 237 240 242 264 262 272 261 204 219 228 219 164 165 264 290 259 140 107 84 103 57 20
188 197 201 201 202 205 201 191 199 210 210 216 207 212 213 210 213 225 230 234 240 235 233 231 241 238 262 284 246 232 225 222 194 201 237 257 229 210 151 158 195 198 211
190 194 203 205 196 200 200 202 201 199 210 213 208 217 226 223 218 216 216 223 232 246 243 241 243 238 233 217 207 249 211 184 208 232 268 276 274 249 214 202 193 159 216
189 200 200 194 191 202 207 203 203 204 210 208 213 211 211 216 220 216 203 212 223 230 235 222 255 232 220 243 224 223 214 195 230 213 223 229 259 261 265 228 201 186 228
194 195 190 185 199 204 206 207 208 207 201 202 211 207 215 206 191 195 207 223 240 233 210 190 159 125 128 182 181 149 43 83 136 194 221 221 267 20 334 301 248 233 260
127 120 262 200 201 202 204 208 211 202 205 210 205 206 180 117 121 231 257 247 199 50 57 100 129 111 33 340 184 166 101 32 358 8 64 66 19 327 269 268 304 102 93
141 118 185 252 188 216 211 217 207 192 176 158 133 117 115 102 32 285 282 240 118 86 56 55 57 79 3 317 155 146 97 50 55 84 90 82 55 36 23 120 37 176 91
133 91 88 301 219 208 221 208 181 152 140 122 98 92 115 121 4 296 250 128 129 111 80 73 46 39 20 31 107 158 161 171 144 104 51 38 37 35 34 34 357 53 131
132 116 97 351 302 198 185 185 132 124 109 97 94 85 81 48 36 41 137 125 130 116 107 86 54 31 43 50 55 36 328 128 153 106 79 49 42 38 26 18 30 50 77
130 141 127 157 248 119 113 107 108 102 99 103 111 90 64 42 37 49 67 89 103 110 101 84 69 34 35 45 53 66 63 88 98 88 74 44 27 6 358 4 21 40 37
136 123 128 99 94 70 119 114 116 109 120 120 110 102 86 49 59 61 82 88 88 95 100 111 94 83 47 42 36 55 63 75 95 100 127 89 20 307 323 6 14 50 56
124 119 122 126 106 100 80 98 88 93 108 116 115 91 102 64 45 41 67 84 96 98 109 86 89 85 71 57 28 33 43 56 77 89 60 355 337 5 20 11 21 12 49
104 107 108 101 98 91 67 59 78 73 88 121 98 123 120 104 111 351 124 109 109 115 102 75 60 52 47 38 39 40 40 47 60 42 53 25 10 1 1 2 40 27 83
110 103 91 109 88 85 100 89 53 64 101 96 104 121 51 83 135 131 101 103 114 144 72 85 79 70 75 31 60 53 37 41 43 51 48 42 26 20 356 355 18 39 88
118 116 106 124 115 115 108 106 89 27 51 59 96 117 143 153 151 132 122 100 65 77 88 99 111 118 124 110 85 58 58 18 3 47 58 39 16 21 33 29 26 40 45
117 118 121 128 121 116 119 122 132 137 137 126 67 113 118 134 131 118 118 94 63 43 78 140 152 157 171 144 120 89 87 48 50 65 60 50 41 48 47 38 31 60 66
126 118 111 113 105 116 122 124 126 135 141 137 132 125 114 100 85 64 53 107 138 150 162 176 162 156 145 125 117 116 121 117 118 111 73 64 48 73 62 57 50 53 97
119 123 114 114 113 103 105 124 135 142 137 140 157 149 137 105 91 80 72 146 161 172 177 190 172 174 170 154 146 152 146 145 125 107 115 105 84 96 100 58 36 44 15
110 137 138 125 136 142 142 150 147 135 137 150 167 155 156 136 154 146 202 215 209 210 201 177 198 185 165 159 166 177 172 173 177 175 173 179 166 128 147 136 88 76 91
133 135 130 145 143 154 164 152 165 171 175 165 202 155 160 111 90 230 256 237 226 222 188 202 198 183 161 170 174 178 195 195 204 198 192 190 177 159 346 53 61 65 10
113 118 106 90 93 103 96 111 124 126 115 103 126 125 147 166 208 227 244 244 233 227 203 178 185 190 205 191 188 177 177 218 228 185 191 188 167 197 181 191 249 284 139
140 121 111 105 103 96 99 98 94 85 95 95 90 97 105 95 47 176 199 288 287 264 211 193 185 187 197 190 195 199 191 170 182 183 172 176 181 189 187 212 175 163 114
104 112 119 126 126 120 109 94 87 82 77 76 72 75 83 74 59 48 23 349 341 306 257 192 179 198 198 182 183 158 162 154 158 158 142 135 154 152 110 142 132 108 111
100 109 116 114 106 108 113 114 106 103 100 95 93 91 88 72 56 36 15 21 18 3 328 245 238 208 174 155 173 161 157 160 147 149 133 126 141 128 123 122 127 115 131